Kalamazoo, MI

5:28 PM EDT on September 25, 2017 (GMT -0400)
Kalamazoo-Battle Creek International

Weather History for KAZO - January, 2009

Change the Weather History Date:

Thursday, January 22, 2009

  Actual Average Record
Temperature  
Mean Temperature 24 °F 24 °F  
Max Temperature 28 °F 31 °F 54 °F (1964)
Min Temperature 19 °F 18 °F -11 °F (1970)
Degree Days  
Heating Degree Days 42 41  
Month to date heating degree days 894  
Since 1 July heating degree days 3345  
Cooling Degree Days 0 0  
Month to date cooling degree days 0  
Year to date cooling degree days 0  
Moisture  
Dew Point 19 °F    
Average Humidity 80    
Maximum Humidity 85    
Minimum Humidity 69    
Precipitation  
Precipitation 0.00 in 0.06 in 0.82 in (1957)
Month to date precipitation 1.26  
Year to date precipitation 1.26  
Snow  
Snow 0.00 in - - ()
Snow Depth 11.00 in    
Sea Level Pressure  
Sea Level Pressure 29.91 in    
Wind  
Wind Speed 7 mph (SW)    
Max Wind Speed 12 mph    
Max Gust Speed -    
Visibility 4 miles    
Events      
T = Trace of Precipitation, MM = Missing Value Source: NWS Daily Summary

Daily Weather History Graph

Daily Weather History Graph

Search for Another Location

Airport or City:

Trip Planner

Search our weather history database for the weather conditions in past years. The results will help you decide how hot, cold, wet, or windy it might be!

Date:

Astronomy

Jan. 22, 2009 Rise Set
Actual Time 8:04 AM EST 5:44 PM EST
Civil Twilight 7:33 AM EST 6:14 PM EST
Nautical Twilight 6:59 AM EST 6:48 PM EST
Astronomical Twilight 6:26 AM EST 7:21 PM EST
Moon 5:42 AM EST (1/22) 2:17 PM EST (1/22)
Length of Visible Light 10h 40m
Length of Day
9h 39m
Waning Crescent, 11% of the Moon is Illuminated
Jan 22
Waning Crescent
Jan 26
New
Feb 2
First Quarter
Feb 9
Full
Feb 16
Last Quarter

Hourly Weather History & Observations

Time (EST) Temp. Windchill Dew Point Humidity Pressure Visibility Wind Dir Wind Speed Gust Speed Precip Events Conditions
12:53 AM 27.0 °F 18.7 °F 19.9 °F 75% 29.90 in 7.0 mi WSW 8.1 mph - N/A   Overcast
1:53 AM 25.0 °F 18.1 °F 18.0 °F 75% 29.90 in 6.0 mi SW 5.8 mph - N/A   Haze
2:36 AM 24.8 °F 16.1 °F 19.4 °F 80% 29.86 in 6.0 mi SW 8.1 mph - N/A   Haze
2:53 AM 25.0 °F 15.5 °F 19.0 °F 78% 29.90 in 6.0 mi SW 9.2 mph - N/A   Haze
3:53 AM 25.0 °F 17.1 °F 19.9 °F 81% 29.89 in 5.0 mi SW 6.9 mph - N/A   Haze
4:49 AM 26.6 °F 16.2 °F 21.2 °F 80% 29.84 in 4.0 mi WSW 11.5 mph - N/A   Haze
4:53 AM 26.1 °F 17.6 °F 21.0 °F 81% 29.88 in 4.0 mi WSW 8.1 mph - N/A   Haze
5:53 AM 25.0 °F 14.2 °F 19.9 °F 81% 29.89 in 4.0 mi WSW 11.5 mph - N/A   Haze
6:53 AM 25.0 °F 17.1 °F 19.9 °F 81% 29.91 in 3.0 mi WSW 6.9 mph - N/A   Haze
7:53 AM 25.0 °F 17.1 °F 19.9 °F 81% 29.92 in 3.0 mi WSW 6.9 mph - N/A   Haze
8:16 AM 24.8 °F 19.1 °F 19.4 °F 80% 29.88 in 2.0 mi SSW 4.6 mph - N/A   Overcast
8:53 AM 23.0 °F 14.7 °F 19.0 °F 85% 29.93 in 2.0 mi SW 6.9 mph - N/A   Overcast
9:53 AM 23.0 °F 13.1 °F 19.0 °F 85% 29.95 in 2.0 mi SSW 9.2 mph - N/A   Overcast
10:53 AM 24.1 °F 15.2 °F 19.0 °F 81% 29.96 in 2.0 mi SW 8.1 mph - N/A   Haze
11:53 AM 24.1 °F 15.2 °F 19.9 °F 84% 29.96 in 2.0 mi SW 8.1 mph - N/A   Overcast
12:53 PM 24.1 °F 14.4 °F 19.9 °F 84% 29.94 in 2.0 mi SSW 9.2 mph - N/A   Overcast
1:53 PM 25.0 °F 16.3 °F 19.9 °F 81% 29.93 in 2.0 mi SSW 8.1 mph - N/A   Haze
2:42 PM 26.6 °F 19.1 °F 19.4 °F 74% 29.89 in 3.0 mi SW 6.9 mph - N/A   Haze
2:53 PM 26.1 °F 17.6 °F 19.9 °F 78% 29.93 in 3.0 mi WSW 8.1 mph - N/A   Haze
3:03 PM 26.6 °F 21.2 °F 19.4 °F 74% 29.90 in 3.0 mi SW 4.6 mph - N/A   Haze
3:53 PM 28.0 °F - 19.9 °F 72% 29.94 in 4.0 mi Calm Calm - N/A   Haze
4:53 PM 28.0 °F 20.8 °F 19.0 °F 69% 29.94 in 4.0 mi SW 6.9 mph - N/A   Haze
5:53 PM 25.0 °F 19.3 °F 18.0 °F 75% 29.94 in 4.0 mi SW 4.6 mph - N/A   Haze
6:53 PM 25.0 °F - 18.0 °F 75% 29.94 in 4.0 mi Calm Calm - N/A   Haze
7:53 PM 21.0 °F 16.2 °F 16.0 °F 81% 29.92 in 3.0 mi SSE 3.5 mph - N/A   Haze
8:53 PM 19.9 °F - 16.0 °F 85% 29.93 in 3.0 mi Calm Calm - N/A   Clear
9:53 PM 19.0 °F 13.9 °F 15.1 °F 85% 29.91 in 3.0 mi SSE 3.5 mph - N/A   Clear
10:53 PM 19.0 °F - 15.1 °F 85% 29.90 in 3.0 mi Calm Calm - N/A   Clear
11:53 PM 19.9 °F - 16.0 °F 85% 29.88 in 2.0 mi Calm Calm - N/A   Clear